Zurück zum Katalog

STARLINK-36202

AktivKommunikationVLEO
NORAD 67094·PAYLOAD·🇺🇸 United States

Gestartet Dec 14, 2025 von Vandenberg Space Force Base

Loading…

Nächste Überflüge (nächste 24 Stunden)

TLE

AktuellSource: CelesTrak SupGP

Epoche: Sep 14, 2026, 14:41 UTC

1 67094C 25298V   26257.61229167 -.00051806  00000+0 -43419-2 0  2579
2 67094  69.9995 257.9674 0003747 270.2781 315.2407 14.98351470    18

Verfolge STARLINK-36202 in Echtzeit mit AllMySat

Download on the App Store